Location: Newark
(34.1333°N, 7.9667°W)
Time: 09:13:21
(UTC+00:00)

Altair - Visible Passes

Search period start: 15 June 2021 00:00
Search period end: 25 June 2021 00:00
Orbit: 1501 x 1683 km, 47.2° (Epoch: 14 June)

Date Brightness Start Highest point End Pass type
(mag) Time Alt. Az. Time Alt. Az. Time Alt. Az.
15 Jun 9.2 00:13:19 10° W 00:17:13 15° WSW 00:17:13 15° WSW visible
15 Jun 7.7 21:39:44 10° WNW 21:49:43 68° SW 21:55:15 31° SSE visible
15 Jun 9.1 23:47:24 10° W 23:53:15 17° WSW 23:53:15 17° WSW visible
16 Jun 7.7 21:14:30 10° WNW 21:24:32 74° SW 21:31:20 24° SE visible
16 Jun 8.9 23:21:38 10° W 23:28:14 20° SW 23:29:21 19° SW visible
17 Jun 7.7 20:49:17 10° NW 20:59:19 79° SW 21:07:28 18° SE visible
17 Jun 8.8 22:55:59 10° W 23:03:09 22° SW 23:05:29 21° SW visible
18 Jun 7.7 20:24:04 10° NW 20:34:06 84° SW 20:43:39 12° SE visible
18 Jun 8.8 22:30:25 10° WNW 22:38:03 25° SW 22:41:40 20° SSW visible
19 Jun 7.8 19:58:51 10° NW 20:08:53 90° SW 20:19:06 10° SE visible
19 Jun 8.8 22:04:54 10° WNW 22:12:56 28° SW 22:17:54 19° SSW visible
20 Jun 8.7 21:39:28 10° WNW 21:47:49 31° SW 21:54:11 16° S visible
21 Jun 8.6 21:14:03 10° WNW 21:22:42 34° SW 21:30:31 13° S visible
22 Jun 8.6 20:48:41 10° WNW 20:57:34 38° SW 21:06:36 10° SSE visible
23 Jun 8.5 20:23:20 10° WNW 20:32:26 41° SW 20:41:41 10° SSE visible
24 Jun 8.5 19:58:03 10° WNW 20:07:17 45° SW 20:16:44 10° SSE visible
